GW6496 Weather Reports


Display with metric or nautical units.
time (UTC)temp
F
wind
direction
speed
MPH
gust
MPH
rain 1hr
in
rain 24hr
in
rain mn
in
humidity
%
barometer
mb
20260505195439 78 262 3.0 6.0 0.00 0.00 0.00 41 1014.7
20260505194937 77 255 5.0 6.0 0.00 0.00 0.00 39 1014.8
20260505194434 77 41 1.0 9.0 0.00 0.00 0.00 41 1014.7
20260505193934 78 99 1.0 3.0 0.00 0.00 0.00 41 1014.8
20260505193432 78 109 4.0 4.0 0.00 0.00 0.00 41 1014.8
20260505192929 78 122 2.0 4.0 0.00 0.00 0.00 41 1014.8
20260505192427 78 205 0.0 2.0 0.00 0.00 0.00 42 1014.9
20260505191925 79 224 2.0 5.0 0.00 0.00 0.00 39 1014.6
20260505191424 79 126 2.0 4.0 0.00 0.00 0.00 40 1014.9
20260505190920 79 102 3.0 4.0 0.00 0.00 0.00 39 1015.0
20260505190415 80 119 0.0 3.0 0.00 0.00 0.00 38 1014.8
20260505185910 79 106 3.0 4.0 0.00 0.00 0.00 38 1014.9
20260505185408 79 287 2.0 3.0 0.00 0.00 0.00 42 1014.9
20260505184904 79 86 3.0 4.0 0.00 0.00 0.00 40 1015.1
20260505184401 78 35 0.0 4.0 0.00 0.00 0.00 43 1015.1
20260505183858 78 86 2.0 4.0 0.00 0.00 0.00 41 1015.1
20260505183355 79 77 3.0 6.0 0.00 0.00 0.00 40 1015.3
20260505182851 79 62 1.0 3.0 0.00 0.00 0.00 43 1015.2
20260505182348 79 94 4.0 6.0 0.00 0.00 0.00 41 1015.5
20260505181845 78 18 3.0 8.0 0.00 0.00 0.00 41 1015.5
20260505181342 78 61 2.0 6.0 0.00 0.00 0.00 41 1015.8
20260505180839 78 91 2.0 5.0 0.00 0.00 0.00 40 1015.5
20260505180335 79 81 4.0 5.0 0.00 0.00 0.00 41 1015.9
20260505175832 78 307 3.0 8.0 0.00 0.00 0.00 43 1015.8
20260505175328 77 297 1.0 4.0 0.00 0.00 0.00 41 1015.9
20260505174825 78 89 2.0 12.0 0.00 0.00 0.00 40 1015.9
20260505174322 78 74 2.0 6.0 0.00 0.00 0.00 40 1016.0
20260505173818 78 97 2.0 4.0 0.00 0.00 0.00 40 1016.1
20260505173314 78 212 1.0 3.0 0.00 0.00 0.00 40 1015.9
20260505172812 77 152 4.0 9.0 0.00 0.00 0.00 40 1016.1
20260505172310 77 118 2.0 3.0 0.00 0.00 0.00 45 1015.8
20260505171804 77 53 2.0 3.0 0.00 0.00 0.00 42 1016.2
20260505171301 77 65 2.0 4.0 0.00 0.00 0.00 43 1016.3
20260505170757 77 76 2.0 5.0 0.00 0.00 0.00 41 1016.1
20260505170255 77 66 2.0 5.0 0.00 0.00 0.00 39 1016.1
20260505165750 77 235 2.0 4.0 0.00 0.00 0.00 40 1015.9
20260505165246 78 111 0.0 4.0 0.00 0.00 0.00 43 1016.0
20260505164742 77 265 2.0 6.0 0.00 0.00 0.00 43 1016.1
20260505164239 76 35 0.0 5.0 0.00 0.00 0.00 42 1016.2
20260505163737 76 89 3.0 8.0 0.00 0.00 0.00 43 1016.2
20260505163236 76 79 2.0 5.0 0.00 0.00 0.00 41 1016.2
20260505162732 77 75 4.0 5.0 0.00 0.00 0.00 38 1016.2
20260505162229 76 48 1.0 6.0 0.00 0.00 0.00 42 1016.2
20260505161726 77 97 3.0 5.0 0.00 0.00 0.00 40 1016.3
20260505161224 77 230 2.0 4.0 0.00 0.00 0.00 40 1016.3
20260505160721 76 82 2.0 5.0 0.00 0.00 0.00 41 1016.4
20260505160219 75 78 2.0 5.0 0.00 0.00 0.00 44 1016.5
20260505153158 75 341 0.0 5.0 0.00 0.00 0.00 43 1016.4
20260505152655 76 95 3.0 3.0 0.00 0.00 0.00 45 1016.4
20260505152150 76 253 4.0 4.0 0.00 0.00 0.00 41 1016.5
20260505151646 75 56 2.0 2.0 0.00 0.00 0.00 46 1016.6
20260505151144 75 109 0.0 2.0 0.00 0.00 0.00 46 1016.9
20260505150639 74 227 1.0 2.0 0.00 0.00 0.00 45 1016.7
20260505150137 74 102 1.0 3.0 0.00 0.00 0.00 51 1016.6
20260505140605 62 120 0.0 3.0 0.00 0.00 0.00 70 1016.9
20260505125019 54 100 1.0 2.0 0.00 0.00 0.00 87 1016.3
20260505124515 54 112 2.0 2.0 0.00 0.00 0.00 87 1016.0
20260505124012 53 92 1.0 1.0 0.00 0.00 0.00 88 1016.1
20260505123508 53 105 2.0 2.0 0.00 0.00 0.00 88 1015.9
20260505123004 53 118 2.0 2.0 0.00 0.00 0.00 88 1016.1
20260505122502 52 100 1.0 1.0 0.00 0.00 0.00 90 1016.1
20260505121958 51 109 1.0 1.0 0.00 0.00 0.00 90 1016.1
20260505121455 51 92 1.0 2.0 0.00 0.00 0.00 91 1016.1
20260505120951 50 84 1.0 2.0 0.00 0.00 0.00 91 1016.1
20260505120448 50 106 1.0 2.0 0.00 0.00 0.00 91 1016.0
20260505115947 50 97 2.0 3.0 0.00 0.00 0.00 92 1016.0
20260505115443 49 109 1.0 3.0 0.00 0.00 0.00 92 1015.8
20260505114941 49 107 1.0 2.0 0.00 0.00 0.00 92 1015.8
20260505114437 49 102 2.0 2.0 0.00 0.00 0.00 92 1015.9
20260505113934 49 77 1.0 2.0 0.00 0.00 0.00 93 1015.6
20260505113430 48 133 1.0 3.0 0.00 0.00 0.00 93 1015.5
20260505112926 48 93 2.0 3.0 0.00 0.00 0.00 93 1015.5
20260505112424 48 95 2.0 2.0 0.00 0.00 0.00 93 1015.4
20260505111920 48 93 1.0 2.0 0.00 0.00 0.00 93 1015.2
20260505111415 48 103 2.0 2.0 0.00 0.00 0.00 93 1015.4
20260505110911 48 79 2.0 3.0 0.00 0.00 0.00 93 1015.6
20260505110409 48 89 0.0 2.0 0.00 0.00 0.00 93 1015.2
20260505101839 47 68 2.0 2.0 0.00 0.00 0.00 93 1015.1
20260505101334 47 50 2.0 2.0 0.00 0.00 0.00 93 1015.3
20260505100830 47 129 2.0 3.0 0.00 0.00 0.00 93 1015.4
20260505100327 48 97 2.0 3.0 0.00 0.00 0.00 93 1015.3
20260505095822 48 113 1.0 2.0 0.00 0.00 0.00 93 1015.1
20260505095320 48 106 0.0 2.0 0.00 0.00 0.00 93 1015.3
20260505094816 48 92 1.0 2.0 0.00 0.00 0.00 93 1015.1
20260505094313 48 89 1.0 2.0 0.00 0.00 0.00 93 1014.9
20260505093813 48 91 1.0 2.0 0.00 0.00 0.00 93 1015.1
20260505093312 48 89 1.0 2.0 0.00 0.00 0.00 93 1015.1
20260505092808 48 88 1.0 2.0 0.00 0.00 0.00 93 1015.2
20260505092307 48 86 2.0 2.0 0.00 0.00 0.00 93 1015.0
20260505091804 48 89 1.0 2.0 0.00 0.00 0.00 92 1015.1
20260505091302 48 89 2.0 2.0 0.00 0.00 0.00 92 1015.1
20260505090759 48 96 1.0 2.0 0.00 0.00 0.00 92 1015.4
20260505090258 48 94 1.0 2.0 0.00 0.00 0.00 92 1015.3
20260505085754 48 86 2.0 2.0 0.00 0.00 0.00 92 1015.4
20260505085253 49 89 1.0 1.0 0.00 0.00 0.00 91 1015.4
20260505084749 48 111 2.0 3.0 0.00 0.00 0.00 92 1015.2
20260505084244 49 92 1.0 2.0 0.00 0.00 0.00 91 1015.2
20260505083740 49 98 2.0 2.0 0.00 0.00 0.00 91 1015.3
20260505083237 49 99 1.0 1.0 0.00 0.00 0.00 91 1015.3
20260505082733 49 110 2.0 2.0 0.00 0.00 0.00 90 1015.5
20260505082230 49 111 1.0 2.0 0.00 0.00 0.00 90 1015.4
20260505081725 49 83 1.0 1.0 0.00 0.00 0.00 90 1015.6
20260505081223 49 111 2.0 2.0 0.00 0.00 0.00 90 1015.4
20260505080720 49 113 1.0 2.0 0.00 0.00 0.00 90 1015.2
20260505080215 50 94 1.0 2.0 0.00 0.00 0.00 90 1015.3
20260505075711 50 108 1.0 2.0 0.00 0.00 0.00 90 1015.5
20260505075209 50 103 2.0 2.0 0.00 0.00 0.00 90 1015.5
20260505074706 50 88 1.0 2.0 0.00 0.00 0.00 89 1015.4
20260505074203 50 72 1.0 2.0 0.00 0.00 0.00 89 1015.4
20260505073700 50 121 1.0 2.0 0.00 0.00 0.00 89 1015.4
20260505073158 50 87 1.0 2.0 0.00 0.00 0.00 89 1015.2
20260505072653 50 101 2.0 2.0 0.00 0.00 0.00 88 1015.4
20260505072150 50 89 0.0 2.0 0.00 0.00 0.00 88 1015.4
20260505071646 50 96 2.0 2.0 0.00 0.00 0.00 88 1015.3
20260505071144 50 110 1.0 2.0 0.00 0.00 0.00 87 1015.3
20260505070641 51 99 2.0 2.0 0.00 0.00 0.00 87 1015.3
20260505070137 51 97 1.0 2.0 0.00 0.00 0.00 87 1015.2
20260505065633 51 103 1.0 2.0 0.00 0.00 0.00 86 1015.3
20260505065130 51 94 1.0 2.0 0.00 0.00 0.00 86 1015.3
20260505064627 51 89 1.0 2.0 0.00 0.00 0.00 86 1015.3
20260505064125 51 88 2.0 2.0 0.00 0.00 0.00 86 1015.1
20260505063622 51 89 0.0 2.0 0.00 0.00 0.00 85 1015.3
20260505063118 51 99 1.0 2.0 0.00 0.00 0.00 85 1015.4
20260505062615 51 89 1.0 2.0 0.00 0.00 0.00 85 1015.5
20260505062112 51 96 1.0 2.0 0.00 0.00 0.00 85 1015.5
20260505061609 52 111 1.0 2.0 0.00 0.00 0.00 84 1015.6
20260505061107 52 124 2.0 2.0 0.00 0.00 0.00 84 1015.4
20260505060604 52 93 1.0 2.0 0.00 0.00 0.00 83 1015.4
20260505055556 52 96 2.0 2.0 0.00 0.00 0.00 82 1015.5
20260505055053 53 104 1.0 2.0 0.00 0.00 0.00 82 1015.5
20260505054550 53 96 1.0 2.0 0.00 0.00 0.00 81 1015.7
20260505054049 53 49 0.0 1.0 0.00 0.00 0.00 81 1015.7
20260505053545 53 108 1.0 2.0 0.00 0.00 0.00 80 1015.6
20260505053042 53 111 0.0 2.0 0.00 0.00 0.00 80 1015.7
20260505052539 53 95 1.0 2.0 0.00 0.00 0.00 80 1015.6
20260505052037 54 100 1.0 2.0 0.00 0.00 0.00 79 1015.6
20260505051533 54 102 2.0 2.0 0.00 0.00 0.00 78 1015.6
20260505051031 54 71 1.0 2.0 0.00 0.00 0.00 78 1015.6
20260505050529 54 55 0.0 2.0 0.00 0.00 0.00 78 1015.4
20260505041457 55 96 1.0 1.0 0.00 0.00 0.00 75 1015.5
20260505040954 55 87 1.0 1.0 0.00 0.00 0.00 75 1015.5
20260505040451 56 103 1.0 2.0 0.00 0.00 0.00 74 1015.5
20260505035948 56 103 1.0 2.0 0.00 0.00 0.00 73 1015.6
20260505035444 56 77 2.0 2.0 0.00 0.00 0.00 72 1015.5
20260505034942 56 72 1.0 2.0 0.00 0.00 0.00 72 1015.6
20260505034438 57 66 0.0 1.0 0.00 0.00 0.00 71 1015.4
20260505033935 57 54 1.0 2.0 0.00 0.00 0.00 71 1015.6
20260505033432 57 52 1.0 1.0 0.00 0.00 0.00 70 1015.6
20260505032930 57 57 0.0 2.0 0.00 0.00 0.00 70 1015.7
20260505032427 57 51 1.0 1.0 0.00 0.00 0.00 69 1015.6
20260505031923 57 66 2.0 2.0 0.00 0.00 0.00 69 1015.7
20260505031420 57 38 0.0 2.0 0.00 0.00 0.00 70 1015.5
20260505030917 58 21 0.0 1.0 0.00 0.00 0.00 69 1015.5
20260505030413 58 84 1.0 2.0 0.00 0.00 0.00 68 1015.5
20260505025909 58 109 2.0 2.0 0.00 0.00 0.00 69 1015.7
20260505025406 59 111 1.0 2.0 0.00 0.00 0.00 66 1015.6
20260505024905 59 41 0.0 2.0 0.00 0.00 0.00 64 1015.6
20260505024402 59 39 2.0 2.0 0.00 0.00 0.00 64 1015.6
20260505023859 59 41 1.0 2.0 0.00 0.00 0.00 63 1015.5
20260505023356 60 55 1.0 2.0 0.00 0.00 0.00 63 1015.5
20260505022853 60 33 0.0 2.0 0.00 0.00 0.00 63 1015.5
20260505022350 60 50 0.0 1.0 0.00 0.00 0.00 62 1015.5
20260505021848 60 44 1.0 2.0 0.00 0.00 0.00 62 1015.5
20260505021344 60 50 0.0 1.0 0.00 0.00 0.00 61 1015.4
20260505020840 61 43 1.0 1.0 0.00 0.00 0.00 61 1015.3
20260505020335 61 49 0.0 1.0 0.00 0.00 0.00 61 1015.3
20260505015832 61 31 0.0 1.0 0.00 0.00 0.00 61 1015.3
20260505015330 62 47 0.0 2.0 0.00 0.00 0.00 60 1015.2
20260505014827 62 30 0.0 2.0 0.00 0.00 0.00 60 1015.2
20260505014324 62 0 1.0 2.0 0.00 0.00 0.00 58 1015.2
20260505013820 62 29 0.0 1.0 0.00 0.00 0.00 58 1015.0
20260505013318 62 43 0.0 2.0 0.00 0.00 0.00 57 1015.2
20260505012816 63 48 0.0 2.0 0.00 0.00 0.00 58 1015.1
20260505012313 63 26 1.0 2.0 0.00 0.00 0.00 57 1015.1
20260505011809 63 35 1.0 2.0 0.00 0.00 0.00 57 1015.1
20260505011306 64 37 0.0 1.0 0.00 0.00 0.00 57 1015.0
20260505010802 64 19 0.0 1.0 0.00 0.00 0.00 54 1015.0
20260505010258 64 27 0.0 1.0 0.00 0.00 0.00 53 1014.9
20260505005754 65 347 0.0 0.0 0.00 0.00 0.00 54 1014.8
20260505005252 66 33 1.0 2.0 0.00 0.00 0.00 58 1015.0
20260505004749 66 35 1.0 2.0 0.00 0.00 0.00 54 1014.7
20260505004245 66 59 1.0 2.0 0.00 0.00 0.00 53 1014.6
20260505003743 67 49 2.0 2.0 0.00 0.00 0.00 55 1014.7
20260505003240 67 47 1.0 2.0 0.00 0.00 0.00 54 1014.5
20260505002736 68 43 2.0 2.0 0.00 0.00 0.00 58 1014.7
20260505002234 69 54 0.0 2.0 0.00 0.00 0.00 55 1014.6
20260505001731 69 110 2.0 2.0 0.00 0.00 0.00 52 1014.4
20260505001228 69 66 0.0 1.0 0.00 0.00 0.00 50 1014.6
20260505000725 70 61 1.0 2.0 0.00 0.00 0.00 52 1014.5
20260505000223 70 113 0.0 2.0 0.00 0.00 0.00 45 1014.4
20260504235719 71 129 0.0 3.0 0.00 0.00 0.00 45 1014.3
20260504235215 71 61 0.0 1.0 0.00 0.00 0.00 44 1014.4
20260504234713 72 89 1.0 2.0 0.00 0.00 0.00 42 1014.5
20260504234210 72 128 1.0 2.0 0.00 0.00 0.00 43 1014.3
20260504233706 73 104 1.0 1.0 0.00 0.00 0.00 41 1014.3
20260504233202 73 127 0.0 1.0 0.00 0.00 0.00 41 1014.4
20260504232659 73 86 2.0 3.0 0.00 0.00 0.00 41 1014.3
20260504232156 73 136 1.0 2.0 0.00 0.00 0.00 44 1014.3
20260504231653 74 110 1.0 4.0 0.00 0.00 0.00 41 1014.2
20260504231149 75 105 2.0 3.0 0.00 0.00 0.00 40 1014.3
20260504230646 75 167 0.0 4.0 0.00 0.00 0.00 38 1014.3
20260504230145 75 115 1.0 2.0 0.00 0.00 0.00 39 1014.3
20260504225643 76 122 0.0 2.0 0.00 0.00 0.00 41 1014.4
20260504225138 76 61 2.0 3.0 0.00 0.00 0.00 37 1014.2
20260504224635 77 116 1.0 4.0 0.00 0.00 0.00 35 1014.2
20260504224132 77 217 0.0 2.0 0.00 0.00 0.00 35 1014.4
20260504223629 76 240 1.0 4.0 0.00 0.00 0.00 36 1014.1
20260504223125 76 84 2.0 3.0 0.00 0.00 0.00 38 1014.1
20260504222622 77 254 1.0 3.0 0.00 0.00 0.00 35 1014.2
20260504222119 78 75 0.0 3.0 0.00 0.00 0.00 41 1014.3
20260504221616 79 51 0.0 1.0 0.00 0.00 0.00 44 1014.3
20260504221113 78 77 0.0 4.0 0.00 0.00 0.00 37 1014.3
20260504220609 77 346 1.0 1.0 0.00 0.00 0.00 46 1014.3
20260504220107 76 272 2.0 2.0 0.00 0.00 0.00 40 1014.3
20260504215603 76 0 2.0 2.0 0.00 0.00 0.00 44 1014.2
20260504215101 77 5 1.0 2.0 0.00 0.00 0.00 37 1014.2
20260504214556 79 101 2.0 2.0 0.00 0.00 0.00 44 1014.3
20260504214053 78 69 0.0 2.0 0.00 0.00 0.00 43 1014.2
20260504213549 77 15 0.0 3.0 0.00 0.00 0.00 37 1014.3
20260504213047 77 355 2.0 2.0 0.00 0.00 0.00 36 1014.4
20260504212542 78 9 3.0 3.0 0.00 0.00 0.00 38 1014.2
20260504212040 78 352 1.0 2.0 0.00 0.00 0.00 42 1014.4
20260504211537 77 19 1.0 2.0 0.00 0.00 0.00 45 1014.3
20260504211034 77 96 1.0 4.0 0.00 0.00 0.00 40 1014.1
20260504210531 77 75 1.0 3.0 0.00 0.00 0.00 37 1014.4
20260504210027 77 101 2.0 3.0 0.00 0.00 0.00 39 1014.3
20260504205525 78 140 0.0 3.0 0.00 0.00 0.00 41 1014.4
20260504205023 77 115 0.0 4.0 0.00 0.00 0.00 36 1014.5
20260504204521 76 108 1.0 3.0 0.00 0.00 0.00 38 1014.4
20260504204020 76 86 1.0 2.0 0.00 0.00 0.00 38 1014.5
20260504203517 77 79 1.0 1.0 0.00 0.00 0.00 39 1014.7
20260504203015 79 100 4.0 4.0 0.00 0.00 0.00 36 1014.5
20260504202510 80 26 1.0 3.0 0.00 0.00 0.00 34 1014.5
20260504202007 79 68 0.0 1.0 0.00 0.00 0.00 38 1014.5
20260504201504 78 87 2.0 4.0 0.00 0.00 0.00 36 1014.7
20260504201002 79 92 2.0 3.0 0.00 0.00 0.00 38 1014.8
20260504200458 79 266 3.0 5.0 0.00 0.00 0.00 35 1014.9
20260504195955 79 237 0.0 6.0 0.00 0.00 0.00 37 1014.8